www.pogodaiklimat.ru
Время
и дата
02:53 22.05
03:53 22.05
04:53 22.05
05:53 22.05
06:53 22.05
07:53 22.05
08:53 22.05
09:53 22.05
10:53 22.05
11:53 22.05
12:53 22.05
13:53 22.05
14:53 22.05
15:53 22.05
16:53 22.05
17:53 22.05
18:53 22.05
19:53 22.05
20:53 22.05
21:53 22.05
22:53 22.05
23:53 22.05
00:53 23.05
01:53 23.05
02:53 23.05
03:53 23.05
04:18 23.05
04:48 23.05
04:53 23.05
05:53 23.05
06:53 23.05
07:53 23.05
08:53 23.05
09:17 23.05
09:53 23.05
10:53 23.05
11:21 23.05
11:53 23.05
12:13 23.05
12:26 23.05
12:33 23.05
12:53 23.05
13:53 23.05
14:15 23.05
14:30 23.05
14:53 23.05
15:31 23.05
15:53 23.05
Ветер
(напр.,м/с)
Видим. Явления Облачность Т
(С)
Тd
(С)
f
(%)
Тe
(С)
Тes
(С)
Комфортность P
(гПа)
Po
(гПа)
Тmin
(С)
Tmax
(С)
R
(мм)
R24
(мм)
S
(см)
СВ 2 16 км ясно +1.1 -1.7 82 -4 -4 1026.6 888.5
Ю 1 16 км ясно 0.0 -2.8 81 -4 -4 1027.4 888.7
В 1 16 км ясно -1.1 -3.9 81 -5 -5 1028.2 889.0 -1.1 +2.8
В 2 16 км ясно +2.2 -2.2 73 -2 -2 1027.4 889.0
В 3 16 км ясно +5.6 -1.7 59 +1 +2 1027.3 889.0
В 3
{5}
16 км ясно +8.9 -1.7 47 +5 +7 1026.9 888.7
ЮВ 3 16 км ясно +11.1 -1.7 41 +8 +10 1026.4 888.2
ЮВ 3 16 км ясно +15.0 -1.7 32 +13 +17 1024.8 887.3
Ю 4
{6}
16 км 8/0 2400 м
[Ac]
+15.6 -4.4 25 +14 +14 1023.9 886.4 -1.1 +16.7
Ю 4
{6}
16 км 8/0 2250 м
[Ac]
+13.9 -1.1 36 +11 +12 1024.2 886.1
Ю 3
{5}
16 км 10/0 2100 м
[Ac]
+15.0 -2.8 29 +13 +15 1022.8 885.2
ЮВ 3
{6}
16 км 10/0 2250 м
[Ac]
+15.0 -2.8 29 +13 +15 1021.7 884.4
ЮВ 3
{5}
16 км 10/0 2250 м
[Ac]
+15.0 -3.3 28 +13 +15 1020.7 883.5
Ю 4
{4}
16 км 10/0 2250 м
[Ac]
+15.0 -2.2 31 +13 +14 1020.4 883.2
Ю 3
{5}
16 км 8/0 2250 м
[Ac]
+16.1 -1.7 30 +15 +16 1020.0 882.9 +13.9 +17.2
ЮВ 4
{5}
16 км 8/0 2100 м
[Ac]
+15.6 -1.1 32 +14 +14 1019.2 882.6
ЮВ 3 16 км ясно +13.9 -0.6 37 +12 +13 1019.1 882.9
ЮВ 2 16 км ясно +11.7 -0.6 43 +10 +10 1019.6 883.2
ЮВ 3 16 км ясно +11.7 -0.6 43 +9 +9 1019.2 883.2
ЮВ 2 16 км 10/0 2100 м
[Ac]
+11.1 -0.6 44 +9 +9 1018.9 883.5
ЮВ 3 16 км 2/0 3600 м
[Ac]
+11.1 -1.1 43 +9 +9 1018.8 883.2 +11.1 +16.1
ЮВ 4 16 км 10/2 1650 м
[Ac]
+11.1 0.0 46 +8 +8 1018.4 882.9
Ю 6
{8}
6 км слабый дождь 10/8 1380 м
[Ac]
+8.3 +5.6 83 +3 +3 1018.3 882.6
ЮВ 3
{7}
16 км 2/0 3000 м
[Ac]
+7.8 +5.0 82 +4 +4 1017.9 882.3 1.0
В 3 16 км 8/5 630 м
[Ac]
+7.2 +4.4 82 +3 +3 1018.4 882.3
ЮВ 3 16 км 10/10 900 м +7.2 +4.4 82 +3 +3 1017.9 882.0
ЮВ 3 16 км 10/10 840 м +7.2 +4.4 82 +3 +3 882.0
ЮВ 3 16 км 10/10 750 м +7.0 +4.0 81 +3 +3 881.7
ЮВ 3 16 км 10/10 690 м +7.2 +4.4 82 +3 +3 1017.5 881.7 +6.7 +11.1 1.0 1.0
ЮВ 3 16 км 10/10 690 м +6.7 +3.3 79 +2 +2 1018.0 882.0
ЮВ 4 16 км 10/10 1110 м +7.2 +3.9 80 +2 +2 1017.6 881.7
ЮВ 4 16 км 2/2 1650 м +8.9 +4.4 73 +5 +5 1017.1 881.1
ЮВ 3 16 км 10/10 900 м +8.3 +4.4 76 +4 +4 1017.6 881.4
В 3 16 км 10/10 810 м +7.8 +5.0 82 +4 +4 881.4
В 3 16 км 10/10 720 м +7.8 +5.0 82 +4 +4 1017.6 881.4
ЮВ 3
{4}
11 км слабый дождь 10/10 300 м +6.7 +4.4 85 +2 +2 1018.0 881.4 +6.7 +9.4 1.0
ЮВ 2 16 км слабый дождь 10/10 630 м +6.7 +3.9 82 +3 +3 881.4
ЮВ 2 16 км 10/10 360 м +7.2 +4.4 82 +3 +3 1017.5 881.1
ЮВ 2 16 км слабый дождь 10/10 360 м +7.8 +5.0 82 +4 +4 881.1
ЮВ 2 16 км 10/10 360 м +7.8 +4.4 79 +4 +4 881.1
В 2 16 км 10/10 360 м +7.8 +5.0 82 +4 +4 881.1
ЮВ 2 16 км 10/10 420 м +7.8 +3.9 76 +5 +5 1017.9 881.1
ЮВ 2 16 км 10/10 510 м +9.4 +4.4 71 +7 +7 1017.7 881.1
В 1 16 км 8/8 510 м +10.6 +4.4 65 +9 +11 881.1
нст 1 16 км 10/10 570 м +10.6 +4.4 65 +9 +9 881.1
штиль 0 16 км 10/10 630 м +11.1 +4.4 63 +11 +11 1017.4 881.1
В 2 16 км 8/8 720 м +12.2 +4.4 59 +10 +12 880.8
В 2 16 км 5/5 720 м +11.7 +5.0 63 +10 +14 1017.1 880.8
Местоположение метеостанции Heilig Field: широта 41.8706 долгота -103.5931 высота над уровнем моря 1202 м.
В архиве по умолчанию представлена погода в Скотсблаффе за последние 1-2 суток. Обновление информации о фактической погоде в базе происходит ежечасно! Архивные данные за месяц целиком и за предыдущие месяцы Вы можете получить, выбрав интересующий диапазон дат из раскрывающегося списка и нажав кнопку "Ввод!".
Внимание! Архив погоды МЕТАР в базе сайта по станциям, не включенным в климатический монитор, хранится не более 60 дней. Нет смысла пытаться выбрать более раннюю дату.
*Определитесь, кто Вы:
Внимание! Время в таблицах - местное (без учета летнего времени). Для получения всемирного времени необходимо вычесть поправку, которая равна -7 ч.
Смотрите также архив погоды в соседних городах и на ближайших метеорологических станциях:
Партнеры нашего сайта:      
Пояснения к столбцам:
  • Ветер - указаны скорость ветра в м/с - средняя за 10 мин, порывы в срок и между сроками (в фигурных скобках) и направление, откуда дует ветер: С - северный,
  • СВ - северо-восточный, В - восточный, ЮВ - юго-восточный, Ю - южный, ЮЗ - юго-западный, З - западный, СЗ - северо-западный.
  • Видимость - горизонтальная дальность видимости в метрах или километрах. При видимости от 1 до 10 км при отсутствии осадков обычно наблюдается дымка, при ухудшении видимости до 1 км и менее - туман. В сухую погоду видимость может ухудшаться дымом, пылью или мглою.
  • Явления - указаны атмосферные явления, наблюдавшиеся в срок или в последний час перед сроком; фигурными скобками обозначены явления, наблюдавшиеся между сроками (за 1-3 часа до срока); квадратными скобками обозначены град или гололедные отложения с указанием их диаметра в мм.
  • Облачность - указаны через наклонную черту общая и нижняя облачность в баллах и высота нижней границы облаков в метрах; квадратными скобками обозначены формы облаков: Ci - перистые, Cs - перисто-слоистые, Cc - перисто-кучевые, Ac - высококучевые, As - высокослоистые, Sc - слоисто-кучевые, Ns - слоисто-дождевые, Cu - кучевые, Cb - кучево-дождевые. Подробнее классификацию облаков см. в Атласе облаков (PDF).
  • T - Температура воздуха - температура, измеренная на высоте 2 м над землей.
  • Td - Температура точки росы - температура, при понижении до которой содержащийся в воздухе водяной пар достигнет насыщения.
  • f - Относительная влажность воздуха - влажноcть воздуха, измеренная на высоте 2 м над землей.
  • Te - Эффективная температура - температура, которую ощущает одетый по сезону человек в тени. Характеристика душности погоды. При расчете учитывается влияние влажности воздуха и скорости ветра на теплоощущения человека.
  • Tes - Эффективная температура на солнце - температура, которую ощущает человек, с поправкой на солнечный нагрев. Характеристика знойности погоды. Зависит от высоты солнца над горизонтом, облачности и скорости ветра. Ночью, в пасмурную погоду, а также при ветре 12 м/с и более поправка равна нулю.
  • P - Атмосферное давление - приведенное к уровню моря атмосферное давление.
  • Po - Атмосферное давление - измеренное на уровне метеостанции атмосферное давление.
  • Tmin - Минимальная температура - минимум температуры воздуха на высоте 2 м над землей.
  • Tmax - Максимальная температура - максимум температуры воздуха на высоте 2 м над землей.
  • R - Количество осадков - Количество выпавших осадков за период времени, мм. При наведении курсора мыши на число - период времени, за который выпало указанное количество осадков.
  • R24 - Количество осадков - Количество выпавших осадков за 24 часа, мм.
  • S - Снежный покров - Высота снежного покрова, см. При наведении курсора мыши на число - состояние снежного покрова и степень покрытия местности в баллах.